Content
SEND FEEDBACK

Daily
Averages
Monthly
Summary
Thailand

BANGKOK, THAILAND


Home > Asia > Thailand
Elevation: 66 feet     Latitude: 13 44N     Longitude: 100 34E

WEATHER
 
SELECT A DAY
Number of Records: 235,813;   Date Range: 7/1/96 - 9/18/14
 
SHARE

PRINT THIS DATA

[ ← Previous Day ]
WEATHER ALMANAC - JUNE 28, 2013
[ Next Day → ]
[ °C ]   °F
We're sorry. There is no daily almanac available for Bangkok, Thailand on June 28, 2013.
WEATHER BY HOUR - JUNE 28, 2013
[ °C ]   °F
Local TimeTemperatureDewpointHumidityBarometerVisibilityWind DirectionWind SpeedGust SpeedPrecipitationEventsConditions
12:30 AM84.2 °F75.2 °F74 %29.77 in6.2 miWest (270°)4.6 mphScattered Clouds
1:00 AM83.0 °F73.0 °F65 %29.79 in6.0 miWest (260°)8.1 mphScattered Clouds
1:00 AM84.2 °F73.4 °F70 %29.77 in6.2 miWest (260°)8.1 mphScattered Clouds
1:30 AM82.4 °F73.4 °F74 %29.77 in6.2 miWSW (250°)6.9 mphScattered Clouds
2:00 AM82.4 °F71.6 °F70 %29.74 in6.2 miWest (270°)6.9 mphScattered Clouds
2:30 AM82.4 °F71.6 °F70 %29.74 in6.2 miWNW (290°)12.7 mphScattered Clouds
3:00 AM82.4 °F71.6 °F70 %29.74 in6.2 miWest (280°)8.1 mphScattered Clouds
3:30 AM82.4 °F71.6 °F70 %29.74 in6.2 miWest (280°)9.2 mphScattered Clouds
4:00 AM82.4 °F71.6 °F70 %29.74 in6.2 miWest (280°)8.1 mphMostly Cloudy
4:30 AM80.6 °F71.6 °F74 %29.74 in6.2 miWest (270°)6.9 mphMostly Cloudy
5:00 AM80.6 °F71.6 °F74 %29.74 in6.2 miWest (260°)8.1 mphMostly Cloudy
5:30 AM80.6 °F71.6 °F74 %29.74 in6.2 miWest (270°)5.8 mphMostly Cloudy
6:00 AM80.6 °F71.6 °F74 %29.74 in6.2 miWest (260°)6.9 mphMostly Cloudy
6:30 AM80.6 °F71.6 °F74 %29.74 in6.2 miWNW (290°)6.9 mphMostly Cloudy
7:00 AM82.0 °F71.0 °F62 %29.77 in6.0 miWest (280°)5.8 mphScattered Clouds
7:00 AM82.4 °F71.6 °F70 %29.77 in6.2 miWest (280°)5.8 mphScattered Clouds
7:30 AM82.4 °F71.6 °F70 %29.77 in6.2 miWest (270°)8.1 mphScattered Clouds
8:00 AM84.2 °F71.6 °F66 %29.77 in6.2 miWSW (240°)9.2 mphScattered Clouds
8:30 AM84.2 °F71.6 °F66 %29.80 in6.2 miWest (270°)4.6 mphScattered Clouds
9:00 AM86.0 °F71.6 °F62 %29.80 in6.2 miWest (260°)5.8 mphScattered Clouds
9:30 AM87.8 °F71.6 °F58 %29.80 in6.2 miWest (260°)6.9 mphScattered Clouds
10:00 AM89.6 °F69.8 °F52 %29.80 in6.2 miNW (320°)6.9 mphScattered Clouds
10:30 AM89.6 °F69.8 °F52 %29.77 in6.2 miWest (280°)4.6 mphScattered Clouds
11:00 AM91.4 °F69.8 °F49 %29.77 in6.2 miWest (270°)9.2 mphScattered Clouds
11:30 AM91.4 °F69.8 °F49 %29.77 in6.2 miWest (260°)11.5 mphScattered Clouds
12:00 PM93.2 °F69.8 °F46 %29.77 in6.2 miWest (280°)9.2 mphScattered Clouds
12:30 PM93.2 °F71.6 °F49 %29.77 in6.2 miNW (320°)9.2 mphScattered Clouds
1:00 PM94.0 °F71.0 °F37 %29.76 in6.0 miWNW (300°)9.2 mphScattered Clouds
1:00 PM95.0 °F71.6 °F47 %29.74 in6.2 miWNW (300°)9.2 mphScattered Clouds
1:30 PM95.0 °F71.6 °F47 %29.74 in6.2 miWest (280°)8.1 mphMostly Cloudy
2:00 PM95.0 °F69.8 °F44 %29.71 in6.2 miNW (320°)9.2 mphMostly Cloudy
2:30 PM93.2 °F69.8 °F46 %29.71 in6.2 miNW (320°)11.5 mphMostly Cloudy
3:00 PM93.2 °F69.8 °F46 %29.71 in6.2 miWNW (290°)13.8 mphMostly Cloudy
3:30 PM93.2 °F71.6 °F49 %29.68 in6.2 miNW (320°)9.2 mphMostly Cloudy
4:00 PM93.2 °F71.6 °F49 %29.68 in6.2 miWest (260°)9.2 mphMostly Cloudy
4:30 PM93.2 °F71.6 °F49 %29.68 in6.2 miWest (280°)9.2 mphMostly Cloudy
5:00 PM93.2 °F71.6 °F49 %29.68 in6.2 miNNW (330°)11.5 mphMostly Cloudy
5:30 PM93.2 °F71.6 °F49 %29.68 in6.2 miWest (280°)13.8 mphMostly Cloudy
6:00 PM93.2 °F71.6 °F49 %29.68 in6.2 miWNW (290°)9.2 mphMostly Cloudy
6:30 PM91.4 °F73.4 °F55 %29.68 in6.2 miNNW (330°)13.8 mphMostly Cloudy
7:00 PM90.0 °F74.0 °F50 %29.73 in6.0 miNW (320°)5.8 mphScattered Clouds
7:00 PM89.6 °F73.4 °F59 %29.71 in6.2 miNW (320°)5.8 mphMostly Cloudy
7:30 PM87.8 °F73.4 °F62 %29.71 in6.2 miWSW (240°)11.5 mphMostly Cloudy
8:00 PM87.8 °F75.2 °F66 %29.74 in6.2 miWSW (250°)9.2 mphMostly Cloudy
8:30 PM87.8 °F75.2 °F66 %29.74 in6.2 miSSW (210°)6.9 mphMostly Cloudy
9:00 PM86.0 °F75.2 °F70 %29.74 in6.2 miSW (220°)6.9 mphMostly Cloudy
9:30 PM86.0 °F75.2 °F70 %29.74 in6.2 miWSW (240°)5.8 mphMostly Cloudy
10:00 PM86.0 °F75.2 °F70 %29.74 in6.2 miSW (230°)5.8 mphMostly Cloudy
10:30 PM86.0 °F75.2 °F70 %29.74 in6.2 miSW (230°)8.1 mphMostly Cloudy
11:00 PM86.0 °F75.2 °F70 %29.77 in6.2 miSSW (210°)5.8 mphScattered Clouds
11:30 PM86.0 °F75.2 °F70 %29.77 in6.2 miSW (220°)8.1 mphScattered Clouds
Hourly data recorded from VTBD, located miles away from Bangkok, Thailand







STORIES FROM OUR PARTNERS